www.pogodaiklimat.ru

Погода и климат >> Архив погоды >> Беларусь >> Мозырь


АРХИВ ПОГОДЫ в Мозыре

Время (UTC), дата Ветер
(напр.,м/с)
 
Видим.   Явления Облачность Т
(С)
Тd
(С)
f
(%)
Тe
(С)
Тes
(С)
Комфортность P
(гПа)
Po
(гПа)
Тmin
(С)
Tmax
(С)
R
(мм)
R24
(мм)
S
(см)
03 20.05 ЮВ 3 20 км 3/0
[Ci fib]
+15.3 +8.4 63 +15 +15 тепло 1015.9 993.5
06 20.05 ЮВ 4 20 км 3/0
[Ci sp]
+20.2 +9.3 49 +22 +26 комфорт 1015.7 993.7 +15.2
09 20.05 ЮВ 4
{11}
20 км 3/0
[Ci sp]
+25.1 +11.6 43 +27 +36 жарко 1015.3 993.8
12 20.05 ЮВ 4
{11}
20 км 3/0
[Ac trans]
+26.3 +9.9 36 +27 +34 жарко 1014.6 993.2
15 20.05 ЮВ 4
{12}
20 км 4/0
[Ac trans]
+25.4 +8.2 34 +26 +28 жарко 1013.4 991.9
18 20.05 В 3 15 км 3/0
[Ac trans]
+22.4 +9.4 44 +24 +24 комфорт 1012.8 991.1 +26.7
21 20.05 ЮВ 4
{10}
10 км 3/0
[Ac trans]
+20.4 +7.7 44 +22 +22 комфорт 1013.4 991.5
00 21.05 ЮВ 4 10 км 5/0
[Ac trans]
+17.4 +7.5 52 +17 +17 тепло 1012.9 990.8
03 21.05 ЮВ 4 15 км 8/0
[Ac trans Ci]
+16.2 +7.1 55 +16 +16 тепло 1012.6 990.4
06 21.05 ЮВ 4 20 км 8/0
[Ci]
+18.3 +9.6 57 +18 +22 тепло 1012.4 990.4 +16.2
09 21.05 ЮВ 6-11
{11}
20 км 10/4 600 м
[Sc Ac As]
+22.0 +11.7 52 +24 +25 комфорт 1011.3 989.6
12 21.05 В 3
{12}
17 км в посл. час ливневой дождь 10/3 600 м
[Cb cap Ac As]
+17.7 +15.0 84 +18 +20 по сезону 1011.9 989.8
15 21.05 В 5-12
{16}
20 км 8/4 600 м
[Sc Ac und]
+19.4 +13.0 66 +21 +21 комфорт 1010.0 988.1
18 21.05 ЮВ 3
{12}
12 км 9/6 1200 м
[Cb cap Ac und]
+18.8 +11.0 60 +20 +20 тепло 1009.8 987.9 +22.0 2
21 21.05 СВ 3 10 км {ливн. осадки} 4/0
[Ac trans]
+14.0 +11.9 87 +13 +13 по сезону 1010.1 987.7
00 22.05 ЮВ 2 10 км {ливн. осадки} ясно +14.0 +11.7 86 +13 +13 по сезону 1009.6 987.3
03 22.05 штиль 0 7000 м дымка 3/0
[Ci fib]
+12.6 +12.3 98 +12 +12 по сезону 1009.9 987.4
06 22.05 штиль 0 20 км 3/0
[Ci fib]
+17.7 +13.4 76 +18 +27 тепло 1009.6 987.6 +12.0 1
09 22.05 ЮЗ 1 20 км 3/1 1000 м
[Cu hum Ci fib]
+21.2 +12.4 57 +23 +39 комфорт 1009.1 987.4
12 22.05 В 1 20 км 8/5 1000 м
[Cu med, cong Ac und]
+21.5 +12.6 57 +24 +29 комфорт 1008.4 986.7
15 22.05 штиль 0 20 км {ливн. осадки} 8/3 1000 м
[Cu med, cong Ac trans Ci ing]
+22.6 +10.2 45 +24 +27 комфорт 1007.8 986.2
18 22.05 штиль 0 20 км {ливн. осадки} 8/4 600 м
[Sc Ac und]
+20.3 +11.5 57 +22 +22 комфорт 1007.9 986.1 +24.3 0.6
21 22.05 штиль 0 10 км 3/0
[Ac trans]
+15.2 +11.7 80 +15 +15 по сезону 1008.3 986.1
00 23.05 штиль 0 10 км 3/0
[Ac trans]
+13.6 +11.1 85 +13 +13 по сезону 1008.4 986.0
03 23.05 штиль 0 9000 м дымка 4/0
[Ci fib]
+13.1 +11.3 89 +13 +13 по сезону 1008.4 986.0
06 23.05 С 1 20 км 8/0
[Ci]
+19.5 +12.3 63 +22 +29 комфорт 1008.2 986.4 +12.4
09 23.05 С 2 20 км 8/5 1000 м
[Cu med, cong Ci fib]
+24.0 +11.8 46 +26 +32 жарко 1008.2 986.7
12 23.05 С 1 20 км 8/5 1000 м
[Cu med, cong Ac trans]
+26.2 +10.5 37 +27 +32 жарко 1007.3 986.0
15 23.05 СВ 1 20 км 6/3 1000 м
[Cu med, cong Ac trans]
+24.8 +10.1 39 +26 +28 жарко 1006.8 985.4
18 23.05 штиль 0 15 км 5/0
[Ac cuf]
+19.9 +11.8 60 +21 +21 комфорт 1008.0 986.2 +26.8
21 23.05 штиль 0 10 км 8/0
[Ac und]
+16.3 +11.7 74 +16 +16 тепло 1009.2 987.1
00 24.05 штиль 0 10 км 4/0
[Ac und]
+14.2 +11.5 84 +14 +14 тепло 1009.0 986.7
03 24.05 штиль 0 10 км 5/0
[Ac trans]
+14.1 +10.7 80 +14 +14 по сезону 1009.1 986.8
06 24.05 СВ 1 20 км 4/0
[Ac trans Ci fib]
+22.4 +13.4 57 +25 +32 комфорт 1008.9 987.3 +13.8
09 24.05 З 1 20 км 5/4 600 м
[Cu med, cong Ac trans]
+25.6 +10.2 38 +26 +36 жарко 1008.6 987.3
12 24.05 СЗ 2 20 км 8/5 600 м
[Cu med, cong Ac trans Cs]
+28.2 +9.9 32 +28 +33 жарко 1006.9 985.8
15 24.05 В 3 20 км гроза без осадков 8/5 600 м
[Cb calv Ac trans Cs]
+24.3 +12.0 46 +26 +27 жарко 1006.6 985.2
18 24.05 З 1 6000 м гроза, ливневой дождь 10/6 720 м
[Cb calv Ac As]
+15.3 +14.8 97 +16 +16 по сезону 1008.2 986.0 +28.2 12
21 24.05 В 1 5000 м гроза, ливневой дождь 10/10 630 м
[Cb calv]
+14.7 +14.3 97 +15 +15 по сезону 1009.8 987.5
00 25.05 штиль 0 6000 м дымка {гроза, ливн. осадки} 6/0
[Ac und]
+14.5 +13.9 96 +14 +14 тепло 1007.8 985.5
03 25.05 С 2 6000 м дымка 8/0
[Ac und]
+14.2 +13.6 96 +14 +14 по сезону 1007.6 985.3
06 25.05 Ю 1 7000 м дымка 9/0
[Ac und]
+15.4 +14.7 96 +16 +19 по сезону 1008.1 985.9 +13.9 24
09 25.05 З 1 12 км 8/3 1000 м
[Cu med, cong Ac und]
+18.7 +15.5 82 +21 +27 комфорт 1007.8 985.9
12 25.05 ЮЗ 1 18 км 5/3 600 м
[Cu med, cong Ac trans]
+20.1 +16.6 80 +24 +33 комфорт 1006.9 985.1
15 25.05 штиль 0 15 км {гроза} 8/3 600 м
[Cu med, cong Ac trans Ci]
+19.2 +13.7 70 +20 +23 тепло 1006.7 984.9
18 25.05 штиль 0 10 км {гроза} 6/3 600 м
[Cu med, cong Ac trans]
+17.7 +15.0 84 +18 +18 по сезону 1007.7 985.7 +21.8
21 25.05 штиль 0 10 км ясно +14.6 +9.8 73 +14 +14 по сезону 1008.4 986.1
00 26.05 штиль 0 10 км ясно +12.3 +8.6 78 +12 +12 по сезону 1009.0 986.5
03 26.05 штиль 0 16 км 3/0
[Ci fib]
+11.5 +9.0 85 +11 +11 прохладно 1009.9 987.3
06 26.05 СЗ 2 20 км 3/0
[Ac trans]
+15.9 +10.9 72 +16 +22 по сезону 1010.3 988.1 +10.4
09 26.05 З 3 20 км 5/4 1000 м
[Cu med, cong Ci fib]
+19.0 +10.2 57 +20 +28 тепло 1010.8 988.9
12 26.05 З 2 20 км 4/4 1000 м
[Cu hum]
+19.0 +10.5 58 +20 +29 по сезону 1011.1 989.1
15 26.05 З 3
{11}
20 км 3/3 1000 м
[Cu med, cong]
+19.1 +8.7 51 +20 +23 тепло 1010.8 988.9
18 26.05 штиль 0 12 км 8/0
[Ci fib]
+15.4 +10.0 70 +15 +15 по сезону 1011.1 988.8 +20.0
21 26.05 штиль 0 10 км ясно +11.6 +9.8 89 +11 +11 прохладно 1012.6 990.0
00 27.05 штиль 0 8000 м дымка ясно +10.6 +9.4 92 +10 +10 по сезону 1013.0 990.3

 

Местоположение метеостанции Мозырь (Гомельская область, Беларусь): широта 52.04 долгота 29.19 высота над уровнем моря 190 м.

В архиве по умолчанию представлена погода в Мозыре за последнюю неделю. Архивные данные за месяц целиком и за предыдущие месяцы, начиная с января 2011 года, Вы можете получить, выбрав интересующий диапазон дат из раскрывающегося списка и нажав кнопку "Ввод!".


*Определитесь, кто Вы:
робот инопланетянин человек

Внимание! Время в таблицах - всемирное. Для получения местного времени необходимо прибавить поправку, которая равна 3 ч.

Смотрите также архив погоды в соседних городах и на ближайших метеорологических станциях:

Погода в Василевичах (Гомельская область, Беларусь) (50 км)
Погода в Октябре (Гомельская область, Беларусь) (69 км)
Погода в Брагине (Гомельская область, Беларусь) (78 км)
Погода в Овруче (Житомирская область, Украина) (85 км)
Погода в Житковичах (Гомельская область, Беларусь) (92 км)
Погода в Чернобыле (Киевская область, Украина) (111 км)
Погода в Жлобине (Гомельская область, Беларусь) (111 км)
Погода в Коростени (Житомирская область, Украина) (127 км)
Погода в Гомеле (Гомельская область, Беларусь) (127 км)
Погода в Бобруйске (Могилевская область, Беларусь) (130 км)

Пояснения к столбцам:

Ветер - указаны скорость ветра в м/с - средняя за 10 мин, порывы в срок и между сроками (в фигурных скобках) и направление, откуда дует ветер: С - северный, СВ - северо-восточный, В - восточный, ЮВ - юго-восточный, Ю - южный, ЮЗ - юго-западный, З - западный, СЗ - северо-западный.
Видимость - горизонтальная дальность видимости в метрах или километрах. При видимости от 1 до 10 км при отсутствии осадков обычно наблюдается дымка, при ухудшении видимости до 1 км и менее - туман. В сухую погоду видимость может ухудшаться дымом, пылью или мглою.
Явления - указаны атмосферные явления, наблюдавшиеся в срок или в последний час перед сроком; фигурными скобками обозначены явления, наблюдавшиеся между сроками (за 1-3 часа до срока); квадратными скобками обозначены град или гололедные отложения с указанием их диаметра в мм.
Облачность - указаны через наклонную черту общая и нижняя облачность в баллах и высота нижней границы облаков в метрах; квадратными скобками обозначены формы облаков: Ci - перистые, Cs - перисто-слоистые, Cc - перисто-кучевые, Ac - высококучевые, As - высокослоистые, Sc - слоисто-кучевые, Ns - слоисто-дождевые, Cu - кучевые, Cb - кучево-дождевые. Подробнее классификацию облаков см. в Атласе облаков (PDF).
T - Температура воздуха - температура, измеренная на высоте 2 м над землей.
Td - Температура точки росы - температура, при понижении до которой содержащийся в воздухе водяной пар достигнет насыщения.
f - Относительная влажность воздуха - влажноcть воздуха, измеренная на высоте 2 м над землей.
Te - Эффективная температура - температура, которую ощущает одетый по сезону человек в тени. Характеристика душности погоды. При расчете учитывается влияние влажности воздуха и скорости ветра на теплоощущения человека.
Tes - Эффективная температура на солнце - температура, которую ощущает человек, с поправкой на солнечный нагрев. Характеристика знойности погоды. Зависит от высоты солнца над горизонтом, облачности и скорости ветра. Ночью, в пасмурную погоду, а также при ветре 12 м/с и более поправка равна нулю.
P - Атмосферное давление - приведенное к уровню моря атмосферное давление.
Po - Атмосферное давление - измеренное на уровне метеостанции атмосферное давление.
Tmin - Минимальная температура - минимум температуры воздуха на высоте 2 м над землей.
Tmax - Максимальная температура - максимум температуры воздуха на высоте 2 м над землей.
R - Количество осадков - Количество выпавших осадков за период времени, мм. При наведении курсора мыши на число - период времени, за который выпало указанное количество осадков.
R24 - Количество осадков - Количество выпавших осадков за 24 часа, мм.
S - Снежный покров - Высота снежного покрова, см. При наведении курсора мыши на число - состояние снежного покрова и степень покрытия местности в баллах.